Regional Weather Roundup
Issued by NWS

Home | Current Version | Previous Version | Text Only | Print | Product List | Glossary Off
Versions: 1 2 3 4 5 6 7 8 9 10 11 12 13 14 15 16 17 18 19 20 21 22 23 24 25 26 27 28 29 30 31 32 33 34 35 36 37 38 39 40 41 42 43 44 45 46 47 48 49

000
ASUS45 KCYS 290910
RWRWY

WYOMING REGIONAL WEATHER ROUNDUP
NATIONAL WEATHER SERVICE CHEYENNE WY
300 AM MDT SAT AUG 29 2015

NOTE:  "FAIR" INDICATES FEW OR NO CLOUDS BELOW 12,000 FEET
WITH NO SIGNIFICANT WEATHER AND/OR OBSTRUCTIONS TO VISIBILITY.

WYZ001-291000-
YELLOWSTONE NATIONAL PARK

CITY           SKY/WX    TMP DP  RH WIND       PRES   REMARKS
LK YELLOWSTONE   N/A     41  37  86 CALM      30.36S
W YELLOWSTONE  NOT AVBL

$$
WYZ002>013-054>058-071-098>099-291000-
NORTHERN WYOMING

CITY           SKY/WX    TMP DP  RH WIND       PRES   REMARKS
JACKSON        FAIR      48  45  87 CALM      30.26S
CODY           FAIR      68  37  32 SW8       30.11F
GREYBULL       FAIR      64  39  39 E9        30.05S
WORLAND        FAIR      55  43  63 CALM      30.06F
SHERIDAN       FAIR      53  44  71 S7        30.05F
BUFFALO        FAIR      69  33  26 CALM      30.13S
GILLETTE       FAIR      69  41  36 S9        30.09S
HULETT         FAIR      61  46  59 CALM      30.12S
NEWCASTLE      FAIR      63  43  48 SE8       30.14S

$$
WYZ014>020-022>026-101>103-291000-
CENTRAL WYOMING

CITY           SKY/WX    TMP DP  RH WIND       PRES   REMARKS
BIG PINEY      FAIR      45  32  60 CALM      30.32S
PINEDALE       FAIR      41  37  87 W6        30.34S
DUBOIS         FAIR      48  34  57 W9        30.32S
LANDER         FAIR      59  39  47 CALM      30.18S
RIVERTON       FAIR      59  43  55 W9        30.19S
CASPER         FAIR      55  37  50 W7        30.19F
DOUGLAS        FAIR      57  40  52 CALM      30.20S

$$
WYZ021-027>030-104>119-291000-
SOUTHERN WYOMING

CITY           SKY/WX    TMP DP  RH WIND       PRES   REMARKS
EVANSTON       FAIR      61  36  39 SE7       30.30F
KEMMERER       FAIR      52  32  46 N12       30.33S
FORT BRIDGER   SUNNY     64  32  29 CALM      30.32F
ROCK SPRINGS   FAIR      61  28  28 S9        30.30S
DIXON          FAIR      57  38  49 E9        30.34S
RAWLINS        FAIR      50  40  68 E7        30.32F
SARATOGA       FAIR      54  43  66 SE6       30.36S
LARAMIE        FAIR      48  39  71 S7        30.37F
CHEYENNE       FAIR      56  43  61 W3        30.31F
TORRINGTON     FAIR      55  46  71 E3        30.17S
PINE BLUFFS    FAIR      50  39  66 S3        30.26F

$$



USA.gov is the U.S. government's official web portal to all federal, state and local government web resources and services.